Location: Moena
(46.3667°N, 11.6500°E)
Time: 10:24:49
(UTC+00:00)

GP-B - Pass Details

Date: 23 June 2021
Orbit: 631 x 635 km, 89.8° (Epoch: 28 July)

Event Time Altitude Azimuth Distance (km) Brightness Sun altitude
Rises 00:01:42 0° 349° (N) 2,943 7.8 -19.4°
Reaches altitude 10° 00:04:17 10° 335° (NNW) 2,029 6.4 -19.3°
Maximum altitude 00:07:45 23° 284° (WNW) 1,370 4.8 -19.2°
Enters shadow 00:09:16 19° 255° (WSW) 1,515 4.8 -19.2°
